WAT2702 KJAC-KDEN

Flight info

Callsign WAT2702
Flight time N/A
Altitude 41000
Route ALPIN5 KICNE TOFUU FLATI5
Aircraft MD11/H-SDE1E2E3FGHIJ2J3J4J5M1RWXY/LB1D1

Departure

Time 2026-05-09 02:37
Airport Jackson Hole Airport (KJAC)

Arrival

Time N/A
Airport Denver International Airport (KDEN)
Time Latitude Longitude Altitude Speed Heading
2026-05-09 02:16 43.60510 -110.73644 6427 ft 0 kts 109°
2026-05-09 02:28 43.60510 -110.73645 6431 ft 2 kts 109°
2026-05-09 02:28 43.60518 -110.73673 6426 ft 4 kts 107°
2026-05-09 02:29 43.60522 -110.73703 6425 ft 4 kts 69°
2026-05-09 02:29 43.60511 -110.73723 6424 ft 4 kts 21°
2026-05-09 02:29 43.60489 -110.73733 6426 ft 2 kts 19°
2026-05-09 02:29 43.60489 -110.73734 6426 ft 2 kts 19°
2026-05-09 02:32 43.60532 -110.73713 6424 ft 13 kts 19°
2026-05-09 02:32 43.60630 -110.73664 6427 ft 14 kts 20°
2026-05-09 02:33 43.60712 -110.73624 6432 ft 11 kts 18°
2026-05-09 02:33 43.60784 -110.73589 6426 ft 12 kts 20°
2026-05-09 02:33 43.60872 -110.73547 6429 ft 15 kts 19°
2026-05-09 02:33 43.60981 -110.73494 6431 ft 20 kts 19°
2026-05-09 02:34 43.61135 -110.73418 6427 ft 25 kts 19°
2026-05-09 02:34 43.61291 -110.73342 6429 ft 23 kts 19°
2026-05-09 02:34 43.61424 -110.73276 6431 ft 14 kts 18°
2026-05-09 02:34 43.61443 -110.73267 6434 ft 0 kts 19°
2026-05-09 02:35 43.61446 -110.73266 6431 ft 3 kts 20°
2026-05-09 02:35 43.61480 -110.73259 6434 ft 6 kts 357°
2026-05-09 02:35 43.61513 -110.73292 6430 ft 7 kts 301°
2026-05-09 02:36 43.61528 -110.73371 6426 ft 6 kts 263°
2026-05-09 02:36 43.61520 -110.73383 6424 ft 2 kts 218°
2026-05-09 02:36 43.61495 -110.73398 6424 ft 5 kts 202°
2026-05-09 02:36 43.61456 -110.73418 6422 ft 11 kts 200°
2026-05-09 02:37 43.61129 -110.73579 6421 ft 96 kts 200°
2026-05-09 02:37 43.60244 -110.74011 6487 ft 165 kts 200°
2026-05-09 02:37 43.59128 -110.74521 7394 ft 171 kts 202°
2026-05-09 02:37 43.57947 -110.75066 8240 ft 187 kts 199°
2026-05-09 02:38 43.56704 -110.75632 9148 ft 187 kts 202°
2026-05-09 02:38 43.55446 -110.76238 9879 ft 205 kts 204°
2026-05-09 02:38 43.53990 -110.76960 10039 ft 240 kts 203°
2026-05-09 02:38 43.52299 -110.77788 10158 ft 276 kts 203°
2026-05-09 02:39 43.50363 -110.78729 10293 ft 315 kts 202°
2026-05-09 02:39 43.48214 -110.79763 10431 ft 349 kts 202°
2026-05-09 02:39 43.45843 -110.80890 11210 ft 359 kts 202°
2026-05-09 02:39 43.43455 -110.82018 12110 ft 367 kts 202°
2026-05-09 02:40 43.41058 -110.83151 12976 ft 375 kts 202°
2026-05-09 02:40 43.38567 -110.84328 13853 ft 383 kts 202°
2026-05-09 02:40 43.35993 -110.85432 14614 ft 392 kts 194°
2026-05-09 02:40 43.33252 -110.85614 15543 ft 401 kts 176°
2026-05-09 02:41 43.30517 -110.84655 16417 ft 412 kts 160°
2026-05-09 02:41 43.28040 -110.82619 17274 ft 423 kts 142°
2026-05-09 02:41 43.26010 -110.79659 18073 ft 433 kts 127°
2026-05-09 02:41 43.24371 -110.76143 18678 ft 441 kts 120°
2026-05-09 02:42 43.22899 -110.72429 19407 ft 447 kts 118°
2026-05-09 02:42 43.21431 -110.68653 20108 ft 450 kts 119°
2026-05-09 02:42 43.19911 -110.64863 20786 ft 455 kts 121°
2026-05-09 02:42 43.18331 -110.61073 21474 ft 460 kts 122°
2026-05-09 02:43 43.16696 -110.57268 22196 ft 465 kts 122°
2026-05-09 02:43 43.15022 -110.53443 22877 ft 471 kts 123°
2026-05-09 02:43 43.13320 -110.49588 23578 ft 475 kts 123°
2026-05-09 02:43 43.11599 -110.45709 24147 ft 479 kts 123°
2026-05-09 02:44 43.09864 -110.41799 24801 ft 481 kts 123°
2026-05-09 02:44 43.08119 -110.37869 25398 ft 485 kts 123°
2026-05-09 02:44 43.06362 -110.33916 25990 ft 489 kts 123°
2026-05-09 02:44 43.04588 -110.29926 26551 ft 493 kts 123°
2026-05-09 02:45 43.02799 -110.25906 27122 ft 496 kts 123°
2026-05-09 02:45 43.01022 -110.21919 27661 ft 500 kts 123°
2026-05-09 02:45 42.99207 -110.17851 28212 ft 504 kts 123°
2026-05-09 02:45 42.97370 -110.13742 28753 ft 508 kts 123°
2026-05-09 02:46 42.95521 -110.09610 29226 ft 512 kts 123°
2026-05-09 02:46 42.93651 -110.05439 29753 ft 516 kts 123°
2026-05-09 02:46 42.91770 -110.01249 30233 ft 520 kts 123°
2026-05-09 02:46 42.89871 -109.97023 30683 ft 524 kts 123°
2026-05-09 02:47 42.87962 -109.92782 31335 ft 525 kts 123°
2026-05-09 02:47 42.86053 -109.88544 31919 ft 524 kts 124°
2026-05-09 02:47 42.84142 -109.84324 32481 ft 522 kts 124°
2026-05-09 02:47 42.82221 -109.80118 33072 ft 521 kts 124°
2026-05-09 02:48 42.80329 -109.75980 33579 ft 521 kts 124°
2026-05-09 02:48 42.78417 -109.71793 34111 ft 520 kts 124°
2026-05-09 02:48 42.76510 -109.67606 34406 ft 519 kts 124°
2026-05-09 02:48 42.74611 -109.63433 34858 ft 517 kts 124°
2026-05-09 02:49 42.72716 -109.59272 35314 ft 516 kts 124°
2026-05-09 02:49 42.70824 -109.55120 35752 ft 515 kts 124°
2026-05-09 02:49 42.68938 -109.50988 36169 ft 514 kts 124°
2026-05-09 02:49 42.67054 -109.46867 36588 ft 513 kts 124°
2026-05-09 02:50 42.65168 -109.42747 36960 ft 514 kts 124°
2026-05-09 02:50 42.63277 -109.38624 37296 ft 515 kts 124°
2026-05-09 02:50 42.61379 -109.34490 37688 ft 515 kts 124°
2026-05-09 02:50 42.59483 -109.30367 38076 ft 515 kts 124°
2026-05-09 02:51 42.57588 -109.26251 38402 ft 514 kts 124°
2026-05-09 02:51 42.55692 -109.22140 38743 ft 514 kts 123°
2026-05-09 02:51 42.53798 -109.18038 39045 ft 513 kts 123°
2026-05-09 02:51 42.51905 -109.13942 39330 ft 512 kts 123°
2026-05-09 02:52 42.50037 -109.09908 39624 ft 512 kts 123°
2026-05-09 02:52 42.48149 -109.05835 39917 ft 510 kts 123°
2026-05-09 02:52 42.46259 -109.01766 40195 ft 510 kts 123°
2026-05-09 02:52 42.44372 -108.97705 40446 ft 509 kts 123°
2026-05-09 02:53 42.42483 -108.93648 40700 ft 508 kts 122°
2026-05-09 02:53 42.40596 -108.89608 40849 ft 510 kts 123°
2026-05-09 02:53 42.39329 -108.86916 40896 ft 512 kts 123°
2026-05-09 02:54 42.35503 -108.78812 40892 ft 509 kts 123°
2026-05-09 02:54 42.31077 -108.69404 40879 ft 509 kts 122°
2026-05-09 02:55 42.27274 -108.61317 40881 ft 509 kts 122°
2026-05-09 02:55 42.23471 -108.53251 40873 ft 509 kts 123°
2026-05-09 02:56 42.19663 -108.45197 40879 ft 509 kts 123°
2026-05-09 02:56 42.16499 -108.38521 40875 ft 511 kts 122°
2026-05-09 02:57 42.12024 -108.29108 40870 ft 513 kts 122°